Regional Weather Roundup
Issued by NWS

Home | Current Version | Previous Version | Graphics & Text | Print | Product List | Glossary Off
Versions: 1 2 3 4 5 6 7 8 9 10 11 12 13 14 15 16 17 18 19 20 21 22 23 24 25 26 27 28 29 30 31 32 33 34 35 36 37 38 39 40 41 42 43 44 45 46 47 48 49 50

000
ASUS43 KIND 130709
RWRIN

WEATHER ROUNDUP FOR INDIANA
NATIONAL WEATHER SERVICE INDIANAPOLIS IN
200 AM EST SAT FEB 13 2016

NOTE: "FAIR" INDICATES FEW OR NO CLOUDS BELOW 12,000 FEET WITH NO
SIGNIFICANT WEATHER AND/OR OBSTRUCTIONS TO VISIBILITY.

* - STATION DOES NOT REPORT WEATHER SUCH AS PRECIPITATION OR FOG.

+ - STATION NOT QUALITY CONTROLLED BY THE NATIONAL WEATHER SERVICE.
    USE DATA WITH CAUTION...ESPECIALLY DEWPOINT AND RELATIVE
    HUMIDITY OBSERVATIONS.

INZ001>003-010>013-019-020-130800-
NORTHWEST INDIANA

CITY           SKY/WX    TMP DP  RH WIND       PRES   REMARKS
GARY /AIRPORT/ CLOUDY    12  -5  46 NW12G24   30.48R WCI  -2
KNOX *+        CLOUDY    12   9  85 NW16      30.40R WCI  -4
LA PORTE +     LGT SNOW  14   9  83 NW14G23   30.39R VSB 1   WCI  -1
MICHIGAN CITY+ LGT SNOW  12   9  85 N13G28    30.42R WCI  -3
MONTICELLO +   CLEAR     10  -6  48 NW15G21   30.42R WCI  -7
RENSSELAER +   CLEAR     10  -9  40 NW14      30.45R WCI  -5
VALPARAISO     CLOUDY    12   1  61 NW14G22   30.41R WCI  -3

$$

LMZ046-743>745-130800-
SOUTHERN LAKE MICHIGAN

STATION/POSITION TIME  TEMP    WIND        PRES    WAVE
                       AIR SEA DIR/SP/G            HT
                 (UTC) (F)     (DEG/KT/KT) (MB)    (FT)
BURNS HARBOR     0605   15     340/ 20/ 24 1030.1R
MICHIGAN CITY    0600   14     310/ 25/ 28   N/A

$$

INZ004-005-014>016-021>024-130800-
NORTH CENTRAL INDIANA

CITY           SKY/WX    TMP DP  RH WIND       PRES   REMARKS
GOSHEN         MIX PCPN   9   2  73 NE12      30.36R WCI  -6
LOGANSPORT +   PTCLDY    12  -2  52 NW10G21   30.40R WCI  -1
PERU/GRISSOM   MOCLDY    11   2  67 NW16      30.36R WCI  -5
ROCHESTER +    LGT SNOW  14   7  73 NW12      30.37R WCI   0
SOUTH BEND     LGT SNOW  11   7  84 N14       30.38R FOG     WCI  -5
WARSAW +       FLURRIES  10   5  79 N7        30.35R WCI   0

$$

INZ006>009-017-018-025>027-130800-
NORTHEAST INDIANA

CITY           SKY/WX    TMP DP  RH WIND       PRES   REMARKS
ANGOLA *+      CLEAR      5  -4  66 N9        30.30R WCI  -9
AUBURN +       CLEAR     10   0  61 NW8       30.34R WCI  -1
FORT WAYNE     CLOUDY    11   2  67 N16       30.35R WCI  -6
HUNTINGTON +   LGT SNOW  12   6  74 NW7       30.35R WCI   2

$$

INZ028-029-035-036-043>045-051>053-130800-
WEST CENTRAL INDIANA

CITY           SKY/WX    TMP DP  RH WIND       PRES   REMARKS
CRAWFORDSVL +  CLEAR     10  -8  43 NW12      30.43R WCI  -5
GREENCASTLE +  CLEAR     14  -8  37 NW12G18   30.43R WCI   0
LAFAYETTE      CLEAR     10  -5  50 NW15      30.45R WCI  -7
TERRE HAUTE    CLEAR     15   4  61 NW12G20   30.46R WCI   2

$$

INZ030>032-037>040-046>048-054>057-064-065-130800-
CENTRAL INDIANA

CITY           SKY/WX    TMP DP  RH WIND       PRES   REMARKS
FISHERS *+     PTCLDY    12   3  67 NW10G16   30.39  WCI  -1
FRANKFORT +    PTCLDY    12  -8  39 NW9       30.42R WCI   0
GREENWOOD *+   CLEAR     16   1  53 NW13G20   30.39R WCI   2
INDIANAPOLIS   PTCLDY    14  -1  51 NW14      30.39R WCI  -1
-EAGLE CREEK   CLEAR     14   2  58 NW13      30.39R WCI   0
KOKOMO *+      CLEAR     12   1  62 NW17      30.37R WCI  -5
MARION +       PTCLDY    11  -3  55 NW13      30.36R WCI  -4
MT COMFORT *+  PTCLDY    12   1  62 NW20G26   30.38R WCI  -6
SHELBYVILLE    CLEAR     16   1  51 NW14      30.37R WCI   2
ZIONSVILLE +   PTCLDY    11   2  66 NW14      30.39R WCI  -5

$$

INZ033-034-041-042-049-050-058-059-130800-
EAST CENTRAL INDIANA

CITY           SKY/WX    TMP DP  RH WIND       PRES   REMARKS
MUNCIE         PTCLDY    12   2  64 NW13      30.34R WCI  -3

$$

INZ060-061-067>069-081>083-085>088-130800-
SOUTHWEST INDIANA

CITY           SKY/WX    TMP DP  RH WIND       PRES   REMARKS
EVANSVILLE     CLEAR     21   4  47 N14G23    30.49R WCI   8
HUNTINGBURG *+ CLEAR     19   5  53 NW17G25   30.45R WCI   4
WASHINGTON +   CLEAR     17   5  59 N14G20    30.46R WCI   3

$$

INZ062-063-066-070>080-084-089>092-130800-
SOUTH CENTRAL AND SOUTHEAST INDIANA

CITY           SKY/WX    TMP DP  RH WIND       PRES   REMARKS
BEDFORD +      CLEAR     18   5  57 NW7G18    30.42R WCI   8
BLOOMINGTON    CLEAR     15   3  59 NW6       30.41R WCI   6
MADISON *+     PTCLDY    19   5  53 NW14      30.38R WCI   6
NORTH VERNON + CLEAR     18   5  57 NW15G21   30.37R WCI   3
SEYMOUR +      CLEAR     19   5  53 NW13G20   30.40R WCI   7

$$




USA.gov is the U.S. government's official web portal to all federal, state and local government web resources and services.